Weather History for KGPH - December, 2012

Change the Weather History Date:

Friday, December 14, 2012

  Actual Average (KMCI) Record (KMCI)
Temperature  
Mean Temperature 40 °F 31 °F  
Max Temperature 51 °F 40 °F 67 °F (1933)
Min Temperature 28 °F 23 °F -8 °F (1901)
Degree Days  
Heating Degree Days 26 34  
Month to date heating degree days 441  
Since 1 July heating degree days 1443  
Cooling Degree Days 0 0  
Month to date cooling degree days 0  
Year to date cooling degree days 1360  
Moisture  
Dew Point 30 °F    
Average Humidity 64    
Maximum Humidity 93    
Minimum Humidity 44    
Precipitation  
Precipitation 0.00 in 0.05 in 1.66 in (1975)
Month to date precipitation 0.80  
Year to date precipitation 38.13  
Snow  
Snow 0.00 in 0.20 in 9.70 in (1987)
Month to date snowfall 2.0  
Since 1 July snowfall 3.4  
Snow Depth -    
Sea Level Pressure  
Sea Level Pressure 29.98 in    
Wind  
Wind Speed 4 mph (SE)    
Max Wind Speed 15 mph    
Max Gust Speed 30 mph    
Visibility 10 miles    
Events Rain    
T = Trace of Precipitation, MM = Missing Value Source: NWS Daily Summary

Daily Weather History Graph

Daily Weather History Graph

Search for Another Location

Airport or City:

Trip Planner

Search our weather history database for the weather conditions in past years. The results will help you decide how hot, cold, wet, or windy it might be!

Date:

Astronomy

Dec. 14, 2012 Rise Set
Actual Time 7:29 AM CST 4:54 PM CST
Civil Twilight 6:59 AM CST 5:24 PM CST
Nautical Twilight 6:25 AM CST 5:58 PM CST
Astronomical Twilight 5:53 AM CST 6:31 PM CST
Moon 8:35 AM CST (12/14) 6:47 PM CST (12/14)
Length of Visible Light 10h 25m
Length of Day
9h 25m
Waxing Crescent, 3% of the Moon is Illuminated
Dec 14
Waxing Crescent
Dec 19
First Quarter
Dec 28
Full
Jan 4
Last Quarter
Jan 11
New

Hourly Weather History & Observations

Time (CST) Temp. Windchill Dew Point Humidity Pressure Visibility Wind Dir Wind Speed Gust Speed Precip Events Conditions
12:15 AM 28.4 °F - 23.0 °F 80% 30.12 in 10.0 mi Calm Calm - N/A   Clear
12:35 AM 28.4 °F - 23.0 °F 80% 30.11 in 10.0 mi Calm Calm - N/A   Clear
12:55 AM 28.4 °F - 23.0 °F 80% 30.11 in 10.0 mi Calm Calm - N/A   Clear
1:15 AM 28.4 °F 24.6 °F 23.0 °F 80% 30.10 in 10.0 mi ESE 3.5 mph - N/A   Clear
1:35 AM 28.4 °F - 23.0 °F 80% 30.10 in 10.0 mi Calm Calm - N/A   Clear
1:55 AM 30.2 °F - 23.0 °F 75% 30.10 in 10.0 mi Calm Calm - N/A   Clear
2:15 AM 30.2 °F - 24.8 °F 80% 30.10 in 10.0 mi Calm Calm - N/A   Clear
2:35 AM 32.0 °F 28.7 °F 26.6 °F 80% 30.11 in 10.0 mi East 3.5 mph - N/A   Clear
2:55 AM 33.8 °F 30.8 °F 26.6 °F 75% 30.11 in 10.0 mi ESE 3.5 mph - N/A   Clear
3:15 AM 32.0 °F 28.7 °F 26.6 °F 80% 30.10 in 10.0 mi ESE 3.5 mph - N/A   Clear
3:35 AM 32.0 °F 27.5 °F 26.6 °F 80% 30.09 in 10.0 mi ESE 4.6 mph - N/A   Clear
3:55 AM 32.0 °F 28.7 °F 26.6 °F 80% 30.09 in 10.0 mi ESE 3.5 mph - N/A   Clear
4:15 AM 32.0 °F 28.7 °F 26.6 °F 80% 30.08 in 10.0 mi ESE 3.5 mph - N/A   Clear
4:35 AM 30.2 °F 26.7 °F 24.8 °F 80% 30.08 in 10.0 mi ESE 3.5 mph - N/A   Clear
4:55 AM 30.2 °F 25.4 °F 24.8 °F 80% 30.08 in 10.0 mi ESE 4.6 mph - N/A   Clear
5:15 AM 30.2 °F 26.7 °F 24.8 °F 80% 30.08 in 10.0 mi ESE 3.5 mph - N/A   Clear
5:35 AM 32.0 °F 28.7 °F 24.8 °F 75% 30.08 in 10.0 mi SE 3.5 mph - N/A   Clear
5:55 AM 32.0 °F 28.7 °F 26.6 °F 80% 30.08 in 10.0 mi ESE 3.5 mph - N/A   Clear
6:15 AM 32.0 °F - 26.6 °F 80% 30.08 in 10.0 mi Calm Calm - N/A   Clear
6:35 AM 35.6 °F 31.7 °F 26.6 °F 70% 30.08 in 10.0 mi ESE 4.6 mph - N/A   Clear
6:55 AM 35.6 °F 31.7 °F 26.6 °F 70% 30.09 in 10.0 mi ESE 4.6 mph - N/A   Clear
7:15 AM 33.8 °F 29.6 °F 26.6 °F 75% 30.09 in 10.0 mi ESE 4.6 mph - N/A   Clear
7:35 AM 35.6 °F 31.7 °F 26.6 °F 70% 30.09 in 10.0 mi ESE 4.6 mph - N/A   Clear
7:55 AM 35.6 °F 31.7 °F 26.6 °F 70% 30.08 in 10.0 mi SE 4.6 mph - N/A   Clear
8:15 AM 35.6 °F 31.7 °F 26.6 °F 70% 30.08 in 10.0 mi SE 4.6 mph - N/A   Clear
8:35 AM 37.4 °F 33.8 °F 26.6 °F 65% 30.07 in 10.0 mi SE 4.6 mph - N/A   Clear
8:55 AM 37.4 °F 33.8 °F 26.6 °F 65% 30.07 in 10.0 mi ESE 4.6 mph - N/A   Clear
9:15 AM 41.0 °F 38.0 °F 28.4 °F 61% 30.07 in 10.0 mi SE 4.6 mph - N/A   Clear
9:35 AM 41.0 °F 36.4 °F 28.4 °F 61% 30.07 in 10.0 mi SSE 6.9 mph - N/A   Clear
9:55 AM 42.8 °F 39.3 °F 28.4 °F 57% 30.07 in 10.0 mi SSE 5.8 mph - N/A   Clear
10:15 AM 44.6 °F 42.2 °F 28.4 °F 53% 30.07 in 10.0 mi SSE 4.6 mph - N/A   Clear
10:35 AM 44.6 °F 42.2 °F 28.4 °F 53% 30.06 in 10.0 mi SE 4.6 mph - N/A   Clear
10:55 AM 46.4 °F 43.5 °F 28.4 °F 50% 30.05 in 10.0 mi SSE 5.8 mph - N/A   Clear
11:15 AM 46.4 °F 42.9 °F 28.4 °F 50% 30.05 in 10.0 mi South 6.9 mph - N/A   Clear
11:35 AM 50.0 °F - 30.2 °F 47% 30.04 in 10.0 mi South 8.1 mph - N/A   Clear
11:55 AM 50.0 °F - 30.2 °F 47% 30.02 in 10.0 mi SSE 9.2 mph - N/A   Scattered Clouds
12:15 PM 50.0 °F - 30.2 °F 47% 30.02 in 10.0 mi SSE 8.1 mph - N/A   Overcast
12:35 PM 50.0 °F - 30.2 °F 47% 30.01 in 10.0 mi SSE 8.1 mph - N/A   Overcast
12:55 PM 50.0 °F - 30.2 °F 47% 29.99 in 10.0 mi SSE 9.2 mph - N/A   Overcast
1:15 PM 50.0 °F - 30.2 °F 47% 29.98 in 10.0 mi South 8.1 mph - N/A   Overcast
1:35 PM 50.0 °F - 30.2 °F 47% 29.97 in 10.0 mi SSE 6.9 mph - N/A   Mostly Cloudy
1:55 PM 50.0 °F - 30.2 °F 47% 29.95 in 10.0 mi SSE 9.2 mph - N/A   Overcast
2:15 PM 51.8 °F - 30.2 °F 44% 29.94 in 10.0 mi SSE 9.2 mph - N/A   Overcast
2:35 PM 51.8 °F - 30.2 °F 44% 29.92 in 10.0 mi SSE 8.1 mph - N/A   Overcast
2:55 PM 51.8 °F - 30.2 °F 44% 29.92 in 10.0 mi SSE 6.9 mph - N/A   Overcast
3:15 PM 51.8 °F - 30.2 °F 44% 29.91 in 10.0 mi SSE 5.8 mph - N/A   Overcast
3:35 PM 51.8 °F - 30.2 °F 44% 29.91 in 10.0 mi SSE 8.1 mph - N/A   Overcast
3:55 PM 51.8 °F - 32.0 °F 47% 29.91 in 10.0 mi SSE 4.6 mph - N/A   Overcast
4:15 PM 50.0 °F - 35.6 °F 58% 29.91 in 10.0 mi SSE 8.1 mph 17.3 mph N/A   Overcast
4:35 PM 50.0 °F - 35.6 °F 58% 29.91 in 10.0 mi SSE 6.9 mph 16.1 mph N/A   Overcast
4:55 PM 50.0 °F - 33.8 °F 54% 29.89 in 10.0 mi SSE 6.9 mph - N/A   Overcast
5:15 PM 51.8 °F - 32.0 °F 47% 29.89 in 10.0 mi SSE 4.6 mph - N/A   Overcast
5:35 PM 51.8 °F - 32.0 °F 47% 29.88 in 10.0 mi SE 4.6 mph - N/A   Overcast
5:55 PM 50.0 °F - 33.8 °F 54% 29.87 in 10.0 mi ESE 5.8 mph - N/A   Overcast
6:35 PM 51.8 °F - 33.8 °F 50% 29.87 in 10.0 mi SE 5.8 mph - N/A   Overcast
6:55 PM 51.8 °F - 35.6 °F 54% 29.87 in 10.0 mi SE 5.8 mph - N/A   Unknown
7:15 PM 51.8 °F - 35.6 °F 54% 29.87 in 10.0 mi SE 5.8 mph - N/A   Overcast
7:35 PM 51.8 °F - 35.6 °F 54% 29.87 in 10.0 mi SE 6.9 mph - N/A   Overcast
7:55 PM 51.8 °F - 33.8 °F 50% 29.87 in 10.0 mi SSE 9.2 mph - N/A   Overcast
8:15 PM 51.8 °F - 32.0 °F 47% 29.84 in 10.0 mi SE 8.1 mph - N/A   Mostly Cloudy
8:55 PM 50.0 °F - 32.0 °F 50% 29.81 in 10.0 mi SE 9.2 mph - N/A   Scattered Clouds
9:15 PM 50.0 °F - 32.0 °F 50% 29.82 in 10.0 mi SSE 9.2 mph - N/A   Mostly Cloudy
9:35 PM 50.0 °F - 33.8 °F 54% 29.80 in 10.0 mi SE 8.1 mph - N/A   Overcast
9:55 PM 48.2 °F - 37.4 °F 66% 29.80 in 7.0 mi SSE 9.2 mph 18.4 mph N/A Rain Light Rain
10:15 PM 48.2 °F - 39.2 °F 71% 29.78 in 10.0 mi SSE 9.2 mph 18.4 mph N/A Rain Light Rain
10:35 PM 46.4 °F 40.1 °F 39.2 °F 76% 29.77 in 10.0 mi SE 15.0 mph 25.3 mph N/A Rain Light Rain
10:55 PM 44.6 °F 38.1 °F 41.0 °F 87% 29.74 in 4.0 mi SE 13.8 mph 29.9 mph N/A Rain Rain
11:15 PM 42.8 °F 35.4 °F 41.0 °F 93% 29.75 in 5.0 mi SE 15.0 mph 20.7 mph N/A Rain Rain
11:35 PM 42.8 °F 38.0 °F 41.0 °F 93% 29.73 in 2.5 mi ESE 8.1 mph 11.5 mph N/A Rain Rain
11:55 PM 42.8 °F 39.3 °F 41.0 °F 93% 29.73 in 3.0 mi SSE 5.8 mph - N/A Rain Heavy Rain